Tracking 28915 objects as of 30-May-2024
HD Live streaming from Space Station
objects crossing your sky now

OBJECT AW

Track OBJECT AW now!
10-day predictions
OBJECT AW is classified as:


NORAD ID: 57322
Int'l Code: 2023-091AW
Perigee: 521.0 km
Apogee: 543.2 km
Inclination: 97.6 °
Period: 95.1 minutes
Semi major axis: 6903 km
RCS: Unknown
Launch date: June 27, 2023
Source: (TBD)
Launch site: VOSTOCHNY COSMODROME (VOSTO)

Uplink (MHz):
Downlink (MHz):
Beacon (MHz): 435.060
Mode: CW 20
Call sign: RS45S
Status: Unknown

Your satellite tracking list
Your tracking list is empty




NASA's NSSDC Master Catalog

Two Line Element Set (TLE):
1 57322U 23091AW  24151.19059174  .00014998  00000-0  83338-3 0  9992
2 57322  97.6120 204.6837 0016114 175.4461 184.6919 15.13691827 48741
Source of the keplerian elements: AFSPC